cover

 

Get it on iTunes StoreListen on Apple Music

Space Rockerz

#Trackname / Key / BPM / Publish dateArtists, Remixers / Label
1 130 bpm, 12A / Db minor, 2018-10-19, Trance,  0  25
2 133 bpm, 12B / E major, 2018-10-19, Trance,  0  25
3 132 bpm, 4B / Ab major, 2018-10-19, Trance,  0  25
4 128 bpm, 1A / Ab minor, 2018-10-19, Trance,  0  25
5 130 bpm, 12A / Db minor, 2018-10-19, Trance,  0  25
6 130 bpm, 12A / Db minor, 2018-09-14, Trance,  0  25
7 133 bpm, 12B / E major, 2018-09-14, Trance,  0  25
8 132 bpm, 4B / Ab major, 2018-09-14, Trance,  0  25
9 128 bpm, 1B / B major, 2018-09-14, Trance,  0  25
10 130 bpm, 12A / Db minor, 2018-09-14, Trance,  0  25
11 136 bpm, 8A / A minor, 2018-05-25, Trance,  0  30
12 136 bpm, 8A / A minor, 2018-05-18, Trance,  0  45
13 136 bpm, 8A / A minor, 2018-05-18, Trance,  0  45
14 136 bpm, 8A / A minor, 2017-09-22, Trance,  0  40
15 136 bpm, 8A / A minor, 2017-09-22, Trance,  0  40
16 134 bpm, 4A / F minor, 2017-09-15, House,  0  21
17 128 bpm, 1B / B major, 2017-06-30, Trance,  0  30
18 128 bpm, 7B / F major, 2017-04-28 (2008-12-03), Progressive House,  0  10
19 128 bpm, 7B / F major, 2017-04-28 (2011-03-18), Progressive House,  0  6
20 128 bpm, 7B / F major, 2017-04-28 (2009-09-22), Progressive House,  0  2
21 134 bpm, 8A / A minor, 2017-04-28 (2011-04-12), Progressive House,  0  4
22 128 bpm, 1A / Ab minor, 2017-04-28, Trance,  0  25
23 132 bpm, 4A / F minor, 2017-01-27, Trance,  0  19
24 132 bpm, 4A / F minor, 2017-01-27, Trance,  0  20
25 130 bpm, 12A / Db minor, 2016-12-09, Trance,  0  100
26 128 bpm, 1B / B major, 2016-12-09, Trance,  0  100
27 128 bpm, 5A / C minor, 2016-03-18, Trance,  0  25
28 128 bpm, 5A / C minor, 2016-01-22, Trance,  0  25
29 128 bpm, 5A / C minor, 2015-12-04, Trance,  0  28
30 128 bpm, 5A / C minor, 2015-11-02, Trance,  2  1
31 136 bpm, 8A / A minor, 2015-02-23, Trance,  0  50
32 136 bpm, 8A / A minor, 2014-10-20, Trance,  2  25
33 132 bpm, 8A / A minor, 2014-10-06, Trance,  0  20
34 136 bpm, 8A / A minor, 2014-09-01, Trance,  1  20
35 132 bpm, 4B / Ab major, 2014-08-25, Trance,  0  12
36 136 bpm, 8A / A minor, 2014-08-18, Trance,  0  20
37 136 bpm, 8A / A minor, 2014-07-14, Trance,  0  30
38 132 bpm, 8B / C major, 2014-06-09, Progressive House,  0  1
39 136 bpm, 8A / A minor, 2014-06-02, Trance,  0  20
40 136 bpm, 8A / A minor, 2014-05-19, Trance,  0  25
41 132 bpm, 8A / A minor, 2014-05-05, Trance,  0  25
42 132 bpm, 4B / Ab major, 2014-04-28, Trance,  0  25
43 128 bpm, 12A / Db minor, 2014-04-21, Electronica,  0  13
44 132 bpm, 6A / G minor, 2014-04-14, Trance,  0  5
45 132 bpm, 1A / Ab minor, 2014-04-07, Trance,  0  25
46 132 bpm, 8A / A minor, 2014-03-31, Trance,  0  20
47 132 bpm, 4B / Ab major, 2014-03-31, Trance,  0  20
48 136 bpm, 8A / A minor, 2014-03-24, Trance,  0  25
49 132 bpm, 4B / Ab major, 2014-03-24, Trance,  0  25
50 132 bpm, 4B / Ab major, 2014-03-17, Trance,  0  25
51 136 bpm, 8A / A minor, 2014-03-17, Trance,  0  25
52 132 bpm, 6A / G minor, 2014-03-14, Trance,  0  32
53 132 bpm, 8B / C major, 2014-03-10, Trance,  0  20
54 136 bpm, 8A / A minor, 2014-03-03, Trance,  0  17
55 136 bpm, 8A / A minor, 2014-03-03, Trance,  0  10
56 132 bpm, 8A / A minor, 2014-02-24, Trance,  0  25
57 132 bpm, 8B / C major, 2014-02-17, Trance,  0  25
58 132 bpm, 4B / Ab major, 2014-02-17, Trance,  2  3
59 136 bpm, 8A / A minor, 2014-02-10, Trance,  0  20
60 132 bpm, 8A / A minor, 2014-02-03, Trance,  0  10
61 132 bpm, 8A / A minor, 2014-01-27, Trance,  0  4
62 132 bpm, 8B / C major, 2014-01-27, Trance,  2  4
63 136 bpm, 8A / A minor, 2014-01-27, Trance,  8  4
64 136 bpm, 8A / A minor, 2014-01-27, Trance,  1  4
65 132 bpm, 8A / A minor, 2013-11-11, Trance,  0  20
66 128 bpm, 1B / B major, 2013-11-04, Trance,  0  20
67 130 bpm, 4A / F minor, 2013-11-01, Trance,  0  100
68 128 bpm, 1A / Ab minor, 2013-10-28, Trance,  0  20
69 132 bpm, 8A / A minor, 2013-09-23, Trance,  1  20
70 148 bpm, 1A / Ab minor, 2013-07-22, DJ Tools,  0  12
71 132 bpm, 8A / A minor, 2013-07-01, Trance,  0  10
72 132 bpm, 8A / A minor, 2013-06-24, Trance,  0  20
73 132 bpm, 8A / A minor, 2013-06-10, Trance,  0  20
74 130 bpm, 12A / Db minor, 2013-05-27, Trance,  0  22
75 130 bpm, 12A / Db minor, 2013-05-20, Trance,  0  20
76 133 bpm, 12B / E major, 2013-05-13, Trance,  0  20
77 134 bpm, 2A / Eb minor, 2013-04-29, Trance,  0  20
78 132 bpm, 8A / A minor, 2013-04-22, Trance,  5  1
79 128 bpm, 1A / Ab minor, 2013-04-01, Trance,  1  24
80 128 bpm, 1A / Ab minor, 2013-04-01, Trance,  0  24
81 132 bpm, 1A / Ab minor, 2013-04-01, Trance,  0  24
82 132 bpm, 1A / Ab minor, 2013-04-01, Trance,  0  24
83 128 bpm, 1A / Ab minor, 2013-04-01, Trance,  0  24
84 130 bpm, 12A / Db minor, 2013-04-01, Trance,  0  24
85 133 bpm, 12B / E major, 2013-04-01, Trance,  0  24
86 130 bpm, 12A / Db minor, 2013-04-01, Trance,  1  24
87 128 bpm, 12A / Db minor, 2013-03-25, Electronica,  0  20
88 130 bpm, 12A / Db minor, 2013-03-25, Trance,  0  16
89 132 bpm, 1A / Ab minor, 2013-03-18, Trance,  0  20
90 128 bpm, 1B / B major, 2013-03-11, Trance,  0  20
91 132 bpm, 9A / E minor, 2013-02-22, Trance,  0  11
92 130 bpm, 12A / Db minor, 2013-02-18, Trance,  0  15
93 132 bpm, 1A / Ab minor, 2013-02-18, Trance,  0  10
94 128 bpm, 6A / G minor, 2013-02-18, Trance,  0  20
95 132 bpm, 9A / E minor, 2013-02-01, Trance,  0  104
96 130 bpm, 12A / Db minor, 2013-01-21, Trance,  0  20
97 0 bpm, 4A / F minor, 2013-01-18, Trance,  0  31
98 128 bpm, 1A / Ab minor, 2012-12-10, Trance,  0  10
99 140 bpm, 4A / F minor, 2012-12-07, Trance,  0  10
100 130 bpm, 12A / Db minor, 2012-12-03, Trance,  0  22
×

Sign in

Sign in to access your personalized pages, follow artists and labels you love, and create playlists fromyour favorite tracks.

Please wait...